TimeEST,TemperatureF,Dew PointF,Humidity,Sea Level PressureIn,VisibilityMPH,Wind Direction,Wind SpeedMPH,Gust SpeedMPH,PrecipitationIn,Events,Conditions,WindDirDegrees,DateUTC
12:31 AM,51.8,48.2,88,29.98,8.0,Calm,Calm,-,0.00,,Overcast,0,2012-12-07 05:31:00
12:53 AM,51.8,48.2,88,29.98,9.0,Calm,Calm,-,0.00,,Overcast,0,2012-12-07 05:53:00
12:56 AM,51.1,48.9,92,29.98,9.0,Calm,Calm,-,0.00,,Overcast,0,2012-12-07 05:56:00
1:56 AM,51.1,50.0,96,29.98,4.0,Calm,Calm,-,0.09,Rain,Rain,0,2012-12-07 06:56:00
2:05 AM,51.8,50.0,94,29.97,2.0,Calm,Calm,-,0.07,Rain,Heavy Rain,0,2012-12-07 07:05:00
2:14 AM,51.8,50.0,94,29.98,3.0,Calm,Calm,-,0.08,Rain,Rain,0,2012-12-07 07:14:00
2:35 AM,51.8,50.0,94,29.98,2.5,ESE,4.6,-,0.14,Rain,Heavy Rain,110,2012-12-07 07:35:00
2:45 AM,51.8,51.8,100,29.98,5.0,ESE,3.5,-,0.14,Rain,Light Rain,120,2012-12-07 07:45:00
2:56 AM,51.1,51.1,100,29.98,4.0,Calm,Calm,-,0.15,Rain,Light Rain,0,2012-12-07 07:56:00
3:05 AM,51.8,51.8,100,29.97,2.5,East,3.5,-,0.06,Rain,Rain,90,2012-12-07 08:05:00
3:14 AM,51.8,51.8,100,29.97,3.0,Calm,Calm,-,0.08,Rain,Rain,0,2012-12-07 08:14:00
3:35 AM,51.8,51.8,100,29.97,2.5,ESE,3.5,-,0.15,Rain,Rain,120,2012-12-07 08:35:00
3:56 AM,53.1,53.1,100,29.97,3.0,Variable,3.5,-,0.24,Rain,Rain,0,2012-12-07 08:56:00
4:26 AM,53.6,53.6,100,29.96,2.0,South,4.6,-,0.13,Rain,Heavy Rain,180,2012-12-07 09:26:00
4:32 AM,53.6,53.6,100,29.96,3.0,South,5.8,-,0.16,Rain,Rain,170,2012-12-07 09:32:00
4:52 AM,53.6,51.8,94,29.96,3.0,SSE,5.8,-,0.22,Rain,Light Rain,160,2012-12-07 09:52:00
4:56 AM,54.0,52.0,93,29.96,3.0,South,4.6,-,0.23,Rain,Heavy Rain,170,2012-12-07 09:56:00
5:16 AM,53.6,51.8,94,29.96,2.0,SSE,5.8,-,0.08,Rain,Heavy Rain,150,2012-12-07 10:16:00
5:24 AM,53.6,51.8,94,29.96,3.0,SE,4.6,-,0.11,Rain,Rain,140,2012-12-07 10:24:00
5:41 AM,53.6,51.8,94,29.96,3.0,SE,6.9,-,0.16,Rain,Rain,140,2012-12-07 10:41:00
5:56 AM,53.1,52.0,96,29.96,3.0,SSE,6.9,-,0.18,Rain,Light Rain,150,2012-12-07 10:56:00
6:07 AM,53.6,51.8,94,29.96,3.0,SSE,6.9,-,0.02,Rain,Rain,150,2012-12-07 11:07:00
6:35 AM,53.6,51.8,94,29.96,3.0,SSE,6.9,-,0.04,Rain,Light Rain,150,2012-12-07 11:35:00
6:56 AM,53.1,52.0,96,29.97,7.0,South,8.1,-,0.05,Rain,Light Rain,170,2012-12-07 11:56:00
7:56 AM,53.1,52.0,96,29.97,3.0,SSE,6.9,-,0.11,Rain,Rain,150,2012-12-07 12:56:00
8:05 AM,51.8,51.8,100,29.96,2.5,SSE,6.9,-,0.05,Rain,Heavy Rain,150,2012-12-07 13:05:00
8:56 AM,52.0,51.1,97,29.97,2.5,SE,4.6,-,0.20,Rain,Rain,130,2012-12-07 13:56:00
8:58 AM,51.8,51.8,100,29.97,3.0,SE,4.6,-,0.00,Rain,Rain,130,2012-12-07 13:58:00
9:16 AM,51.8,51.8,100,29.97,3.0,SE,5.8,-,0.02,Rain,Light Rain,140,2012-12-07 14:16:00
9:56 AM,52.0,51.1,97,29.96,4.0,SE,5.8,-,0.05,Rain,Light Rain,140,2012-12-07 14:56:00
10:06 AM,51.8,51.8,100,29.96,2.5,SE,6.9,-,0.01,Rain,Light Rain,140,2012-12-07 15:06:00
10:07 AM,51.8,51.8,100,29.96,2.5,SE,5.8,-,0.01,Rain,Light Rain,140,2012-12-07 15:07:00
10:22 AM,51.8,51.8,100,29.96,4.0,SE,5.8,-,0.05,Rain,Light Rain,140,2012-12-07 15:22:00
10:56 AM,53.1,52.0,96,29.96,3.0,SE,4.6,-,0.07,Rain,Light Rain,130,2012-12-07 15:56:00
11:56 AM,54.0,53.1,97,29.93,7.0,SSE,5.8,-,0.01,,Overcast,150,2012-12-07 16:56:00
12:56 PM,54.0,53.1,97,29.90,5.0,SSE,5.8,-,0.00,Rain,Light Rain,160,2012-12-07 17:56:00
1:03 PM,55.4,53.6,94,29.90,3.0,South,6.9,-,0.01,Rain,Light Rain,170,2012-12-07 18:03:00
1:34 PM,55.4,53.6,94,29.89,4.0,South,5.8,-,0.04,Rain,Light Rain,180,2012-12-07 18:34:00
1:52 PM,55.4,53.6,94,29.88,3.0,South,4.6,-,0.05,Rain,Light Rain,170,2012-12-07 18:52:00
1:54 PM,55.4,53.6,94,29.88,2.0,South,5.8,-,0.05,Rain,Light Rain,180,2012-12-07 18:54:00
1:56 PM,55.0,54.0,96,29.88,2.0,South,5.8,-,0.06,Rain,Rain,180,2012-12-07 18:56:00
2:12 PM,55.4,53.6,94,29.87,2.0,South,4.6,-,0.02,Rain,Light Rain,180,2012-12-07 19:12:00
2:18 PM,55.4,53.6,94,29.87,1.8,South,4.6,-,0.02,Rain,Rain,180,2012-12-07 19:18:00
2:32 PM,55.4,53.6,94,29.87,2.0,South,4.6,-,0.05,Rain,Light Rain,180,2012-12-07 19:32:00
2:56 PM,55.0,54.0,96,29.86,1.8,South,5.8,-,0.07,Rain,Rain,180,2012-12-07 19:56:00
3:07 PM,55.4,53.6,94,29.86,2.5,South,5.8,-,0.02,Rain,Light Rain,180,2012-12-07 20:07:00
3:26 PM,55.4,55.4,100,29.86,4.0,South,5.8,-,0.05,Rain,Light Rain,170,2012-12-07 20:26:00
3:41 PM,55.4,55.4,100,29.86,2.5,South,4.6,-,0.07,Rain,Light Rain,190,2012-12-07 20:41:00
3:43 PM,55.4,55.4,100,29.86,3.0,South,3.5,-,0.07,Rain,Light Rain,190,2012-12-07 20:43:00
3:56 PM,55.9,55.0,97,29.86,7.0,South,5.8,-,0.08,Rain,Light Rain,170,2012-12-07 20:56:00
4:32 PM,57.2,55.4,94,29.86,2.0,South,6.9,-,0.01,Rain,Light Rain,190,2012-12-07 21:32:00
4:40 PM,57.2,55.4,94,29.86,1.5,South,4.6,-,0.03,Rain,Rain,190,2012-12-07 21:40:00
4:54 PM,55.4,55.4,100,29.86,1.5,South,5.8,-,0.07,Rain,Rain,180,2012-12-07 21:54:00
4:56 PM,55.9,55.0,97,29.86,1.5,South,4.6,-,0.08,Rain,Rain,180,2012-12-07 21:56:00
5:07 PM,55.4,55.4,100,29.86,2.0,South,5.8,-,0.00,Rain,Light Rain,180,2012-12-07 22:07:00
5:21 PM,57.2,55.4,94,29.86,3.0,South,4.6,-,0.04,Rain,Light Rain,190,2012-12-07 22:21:00
5:36 PM,57.2,55.4,94,29.86,2.0,SSW,3.5,-,0.07,Rain,Rain,210,2012-12-07 22:36:00
5:45 PM,57.2,55.4,94,29.86,5.0,SSW,3.5,-,0.08,Rain,Light Rain,200,2012-12-07 22:45:00
5:56 PM,55.9,55.9,100,29.86,5.0,SSE,3.5,-,0.08,Rain,Light Rain,160,2012-12-07 22:56:00
6:08 PM,57.2,55.4,94,29.86,6.0,SSE,4.6,-,0.00,,Overcast,160,2012-12-07 23:08:00
6:19 PM,57.2,55.4,94,29.86,7.0,SSE,3.5,-,0.00,,Overcast,160,2012-12-07 23:19:00
6:56 PM,57.0,55.9,96,29.87,9.0,SSW,3.5,-,0.00,Rain,Light Rain,200,2012-12-07 23:56:00
7:24 PM,57.2,55.4,94,29.86,9.0,South,5.8,-,0.00,,Overcast,180,2012-12-08 00:24:00
7:56 PM,57.9,55.0,90,29.86,10.0,SSW,4.6,-,0.00,,Overcast,200,2012-12-08 00:56:00
8:09 PM,57.2,55.4,94,29.87,10.0,SSW,5.8,-,N/A,,Overcast,200,2012-12-08 01:09:00
8:45 PM,57.2,55.4,94,29.87,10.0,SW,9.2,-,N/A,,Overcast,230,2012-12-08 01:45:00
8:56 PM,57.9,55.9,93,29.87,10.0,SSW,9.2,-,N/A,,Overcast,210,2012-12-08 01:56:00
9:13 PM,57.2,55.4,94,29.88,10.0,SSW,5.8,-,N/A,,Overcast,210,2012-12-08 02:13:00
9:56 PM,57.9,55.9,93,29.87,8.0,SSW,8.1,-,N/A,,Overcast,200,2012-12-08 02:56:00
10:56 PM,57.9,55.9,93,29.88,6.0,SW,5.8,-,0.00,Rain,Light Rain,220,2012-12-08 03:56:00
11:07 PM,57.2,55.4,94,29.87,4.0,SW,4.6,-,0.02,Rain,Light Rain,220,2012-12-08 04:07:00
11:40 PM,57.2,57.2,100,29.87,4.0,South,4.6,-,0.02,Rain,Rain,190,2012-12-08 04:40:00
11:56 PM,57.9,57.0,97,29.87,4.0,SSW,4.6,-,0.05,Rain,Light Rain,210,2012-12-08 04:56:00